INMARSAT 4-F2

Last updated on Jan. 15, 2021, 6:30 a.m. UTC

1 28899U 05044A   21014.89410538  .00000003  00000-0  00000-0 0  9998
2 28899   3.1449  32.0838 0002588 272.5974 195.6237  1.00270479 55678
UTC
Height (km)
Latitude
Longitude
Inclination
Orbital Period
UTC large
Height (km)
Speed (km/s)
/
Latitude / Longitude
Inclination (degrees)
Orbital Period (minutes)
Azimuth
Elevation
Range (km)
Doppler Factor
iOS Compass Heading
iOS Angle

Next 30 passes for location: Hong Kong

Rise time Rise Azimuth (degrees) Set time Set Azimuth (degrees) Duration Max altitude (degrees)

No matching passes for this satellites